Regional Weather Roundup
Issued by NWS San Angelo, TX

Home | Current Version | Previous Version | Text Only | Print | Product List | Glossary On
Versions: 1 2 3 4 5 6 7 8 9 10 11 12 13 14 15 16 17 18 19 20 21 22 23 24 25 26 27 28 29 30 31 32 33 34 35 36 37 38 39 40 41 42 43 44 45 46 47 48 49 50
000
ASUS44 KSJT 201610
RWRSJT
WEST CENTRAL TEXAS REGIONAL WEATHER ROUNDUP
NATIONAL WEATHER SERVICE SAN ANGELO TX
1100 AM CDT SAT SEP 20 2014

NOTE: "FAIR" INDICATES FEW OR NO CLOUDS BELOW 12,000 FEET WITH NO
SIGNIFICANT WEATHER AND/OR OBSTRUCTIONS TO VISIBILITY.

TXZ049-054-064>066-071>073-076>078-098-099-113-114-127-128-139-140-
154-155-168>170-201700
...LOCATIONS ACROSS WEST CENTRAL TEXAS...

CITY           SKY/WX    TMP DP  RH WIND       PRES   REMARKS
SAN ANGELO     LGT RAIN  75  71  87 SE3       30.04R
ABILENE        CLOUDY    77  69  76 SE10      30.04R
DYESS AFB      CLOUDY    78  64  63 S10       30.03R
JUNCTION       CLOUDY    79  68  69 E6        30.03R
SWEETWATER     CLOUDY    73  73 100 SE7       30.08R
BROWNWOOD      CLOUDY    79  72  78 SE8       30.03S
COLEMAN        CLOUDY    76  70  82 SE12      30.04S
SONORA         CLOUDY    77  70  78 SE8       30.08R
OZONA          CLOUDY    75  70  83 S7        30.07R
BRADY          CLOUDY    75  70  83 SE8       30.04
$$

TEXAS PANHANDLE/OKLAHOMA PANHANDLE

CITY           SKY/WX    TMP DP  RH WIND       PRES   REMARKS
AMARILLO       CLOUDY    71  66  84 SE8       30.11R
BORGER         PTSUNNY   77  64  64 SW8       30.07S
CANADIAN       MOSUNNY   78  68  72 SW8       30.05R
DALHART        SUNNY     78  63  59 SW9       30.10S
DUMAS          SUNNY     73  67  81 S7        30.09S
GUYMON         NOT AVBL
HEREFORD       CLOUDY    71  68  89 MISG      30.12R
PAMPA          CLOUDY    74  65  71 S8        30.10R
PERRYTON       SUNNY     79  64  59 SW14G20   30.05S
$$

SOUTHERN PANHANDLE/SOUTH PLAINS/ROLLING PLAINS

CITY           SKY/WX    TMP DP  RH WIND       PRES   REMARKS
LUBBOCK        CLOUDY    71  68  90 SE13      30.07R
SNYDER         RAIN      70  70  98 SE8       30.06R
CHILDRESS      CLOUDY    76  69  79 SE8       30.05R
SEMINOLE       LGT RAIN  68  67  96 NE3       30.09R
$$

PERMIAN BASIN

CITY           SKY/WX    TMP DP  RH WIND       PRES   REMARKS
MIDLAND        CLOUDY    74  70  87 SE10      30.05R
ODESSA         CLOUDY    74  69  85 S5        30.05R HAZE
WINK           PTSUNNY   76  71  85 CALM      30.02R
$$

FAR WEST/SOUTHWEST MOUNTAINS/TRANS PECOS

CITY           SKY/WX    TMP DP  RH WIND       PRES   REMARKS
ALPINE         MOSUNNY   76  64  65 SW3       30.17S
DRYDEN           N/A     82  71  69 E7        29.99R
EL PASO        MOSUNNY   76  65  68 NE5       30.08R
FORT STOCKTON  MOSUNNY   74  70  87 W7        30.04R
GUADALUPE PASS CLOUDY    65  64  97 E12         N/A  FOG
MARFA          PTSUNNY   70  64  83 S3        30.17R
PECOS          CLOUDY    75  69  81 NW8       30.03R
$$

DALLAS/FORT WORTH METROPLEX

CITY           SKY/WX    TMP DP  RH WIND       PRES   REMARKS
DFW AIRPORT    PTSUNNY   83  70  64 S13       30.02R
FTW MEACHAM    MOSUNNY   81  70  69 SE10      30.01S
DAL-EXECUTIVE  MOSUNNY   83  70  64 S10       30.02S
GRAND PRAIRIE  MOSUNNY   82  70  65 MISG      30.03S
ADDISON        NOT AVBL
MESQUITE       PTSUNNY   84  70  61 SE9G17    30.03R
LANCASTER      MOSUNNY   82  70  67 SE8       30.03S
$$

NORTH CENTRAL TEXAS

CITY           SKY/WX    TMP DP  RH WIND       PRES   REMARKS
SHRMAN/DENISON SUNNY     82  69  63 S12       30.05S
GAINESVILLE    PTSUNNY   80  69  70 SE12G22   30.06R
BRIDGEPORT     PTSUNNY   80  69  70 SE9       30.05R
DENTON         PTSUNNY   84  68  58 SE14      30.03R
WAXAHACHIE     PTSUNNY   82  68  62 SE9       30.03S
GRANBURY       CLOUDY    83  71  67 E9        30.03S
$$

WESTERN NORTH TEXAS

CITY           SKY/WX    TMP DP  RH WIND       PRES   REMARKS
WICHITA FALLS  PTSUNNY   79  70  74 S10       30.02R
VERNON         CLOUDY    79  69  70 SE7       30.04R
BRECKENRIDGE   CLOUDY    80  70  70 S7        30.02S
COMANCHE       CLOUDY    78  71  78 SE7       30.04S
$$

CENTRAL AND SOUTH CENTRAL TEXAS

CITY           SKY/WX    TMP DP  RH WIND       PRES   REMARKS
AUSTIN/BERGSTM PTSUNNY   81  74  79 E6        29.98S
WACO           CLOUDY    78  72  81 E8        30.02R
HILLSBORO      CLOUDY    77  72  82 SE9       30.03S
TEMPLE         CLOUDY    79  70  73 E8        30.01S
KILLEEN-GRAY   CLOUDY    79  72  78 E8        30.04R
FORT HOOD      CLOUDY    80  72  76 E6        30.02S
GEORGETOWN     CLOUDY    79  72  78 NE5       30.01S
LAGO VISTA     CLOUDY    78  72  80 E3        30.02S
SAN MARCOS     PTSUNNY   81  72  74 E7        29.99S
NEW BRAUNFELS  CLOUDY    80  73  79 E7        29.97S FOG
RANDOLPH AFB   PTSUNNY   81  72  73 E8        29.99R
SAN ANTONIO    PTSUNNY   82  73  74 E10       29.99R
STINSON        CLOUDY    81  73  76 E7        29.96R
PLEASANTON     NOT AVBL
LA GRANGE      PTSUNNY   82  76  82 SE8       29.96S
GIDDINGS       MOSUNNY   82  73  74 E7        30.02S
$$

EAST TEXAS

CITY           SKY/WX    TMP DP  RH WIND       PRES   REMARKS
PARIS          SUNNY     82  68  61 S7        30.06S
CLARKSVILLE    NOT AVBL
TYLER          SUNNY     84  66  54 SE6       30.04R
LONGVIEW       SUNNY     84  69  60 CALM      30.04S
PALESTINE      SUNNY     82  69  64 E6        30.03S
NACOGDOCHES    SUNNY     82  68  61 SE6       30.03S
$$

TEXAS HILL COUNTRY AND EDWARDS PLATEAU

CITY           SKY/WX    TMP DP  RH WIND       PRES   REMARKS
LLANO          CLOUDY    77  73  88 CALM      30.05S
HORSESHOE BAY  CLOUDY    77  71  82 CALM      30.01S
KERRVILLE      CLOUDY    76  71  83 E8        30.03R
FREDERICKSBRG  CLOUDY    76  70  80 E3        30.03S
ROCKSPRINGS    MOSUNNY   79  70  73 SE8       30.06S
HONDO          CLOUDY    81  72  74 E8        30.00R
UVALDE         CLOUDY    79  75  86 E10       29.98R
DEL RIO        CLOUDY    79  74  84 E8        29.96R
$$

SOUTHEAST TEXAS

CITY           SKY/WX    TMP DP  RH WIND       PRES   REMARKS
COLLEGE STN    SUNNY     81  68  64 E8        29.99S
CALDWELL       PTSUNNY   81  73  78 E5        30.02S
CROCKETT       LGT RAIN  84  72  65 SE10      30.05R
BRENHAM        MOSUNNY   84  72  67 E7        29.99S
HUNTSVILLE     SUNNY     83  68  60 E6        30.01R
CONROE         SUNNY     82  70  66 VRB3      30.00R
HOUSTON BUSH   MOSUNNY   83  72  69 E13       29.97S
HOUSTON HOBBY  MOSUNNY   84  74  71 E10       29.96S
PERLAND        MOSUNNY   84  74  71 E13       29.97S
WHARTON        PTSUNNY   84  74  72 NE7       29.96S
$$

THE UPPER TEXAS COAST

CITY           SKY/WX    TMP DP  RH WIND       PRES   REMARKS
ORANGE         MOSUNNY   82  72  71 E15       30.00S
PORT ARTHUR    SUNNY     85  71  63 E14       29.98R
GALVESTON      MOSUNNY   83  76  79 NE15      29.96S
ANGLETON       PTSUNNY   82  75  79 NE12      29.95S
BAY CITY       PTSUNNY   85  77  77 E12       29.94S
$$

TEXAS COASTAL BEND, RIO GRANDE PLAINS DEEP SOUTH TEXAS

CITY           SKY/WX    TMP DP  RH WIND       PRES   REMARKS
VICTORIA       PTSUNNY   85  77  77 E12       29.95R
BEEVILLE       PTSUNNY   86  74  66 E9        29.94R
ROCKPORT       MOSUNNY   85  75  72 E12       29.93R
PORT ARANSAS   MOSUNNY   85  76  75 E12       29.93R
PORT LAVACA    MOSUNNY   82  77  85 NE6       29.94R
CORPUS CHRISTI PTSUNNY   86  77  74 NE14      29.92R
KINGSVILLE NAS MOSUNNY   83  79  88 E9        29.92R
COTULLA        NOT AVBL
LAREDO         MOSUNNY   85  76  74 E6        29.96R
BROWNSVILLE    PTSUNNY   88  76  67 SE6       29.90R
PORT ISABEL    MOSUNNY   87  78  74 E13       29.90S
HEBBRONVILLE     N/A     80  74  84 SE9       29.97R THUNDER
MCALLEN        CLOUDY    81  76  84 E5        29.91R
WESLACO        CLOUDY    85  72  64 SE9       29.90S
FALFURRIAS     CLOUDY   N/A N/A N/A E6        29.91F
EDINBURG       TSTM      77  73  86 CALM      29.93R VSB 3/4
$$


USA.gov is the U.S. government's official web portal to all federal, state and local government web resources and services.